Time,TemperatureF,DewpointF,PressureIn,WindDirection,WindDirectionDegrees,WindSpeedMPH,WindSpeedGustMPH,Humidity,HourlyPrecipIn,Conditions,Clouds,dailyrainin,SoftwareType,DateUTC
2013-03-05 00:02:00,29.0,20.0,29.74,NNE,33,10.0,11.0,69,0.00,,,0.00,,2013-03-05 05:02:00,
2013-03-05 00:12:00,29.0,20.0,29.74,NNE,33,10.0,11.0,69,0.00,,,0.00,,2013-03-05 05:12:00,
2013-03-05 00:22:00,29.0,20.0,29.74,NNE,23,7.0,8.0,70,0.00,,,0.00,,2013-03-05 05:22:00,
2013-03-05 00:32:00,29.0,20.0,29.75,North,0,9.0,10.0,70,0.00,,,0.00,,2013-03-05 05:32:00,
2013-03-05 00:42:00,29.0,20.0,29.75,North,0,9.0,10.0,70,0.00,,,0.00,,2013-03-05 05:42:00,
2013-03-05 00:52:00,28.0,20.0,29.76,NE,45,0.0,5.0,70,0.00,,,0.00,,2013-03-05 05:52:00,
2013-03-05 01:01:00,28.0,20.0,29.76,NE,45,0.0,7.0,70,0.00,,,0.00,,2013-03-05 06:01:00,
2013-03-05 01:11:00,28.0,20.0,29.76,NE,45,0.0,7.0,70,0.00,,,0.00,,2013-03-05 06:11:00,
2013-03-05 01:22:00,28.0,20.0,29.77,NW,315,0.0,8.0,70,0.00,,,0.00,,2013-03-05 06:22:00,
2013-03-05 01:32:00,28.0,20.0,29.77,NNW,338,0.0,0.0,70,0.00,,,0.00,,2013-03-05 06:32:00,
2013-03-05 01:42:00,28.0,20.0,29.77,NNW,338,0.0,0.0,70,0.00,,,0.00,,2013-03-05 06:42:00,
2013-03-05 01:52:00,28.0,20.0,29.78,NNW,338,1.0,3.0,71,0.00,,,0.00,,2013-03-05 06:52:00,
2013-03-05 02:01:00,28.0,20.0,29.78,WNW,293,0.0,2.0,71,0.00,,,0.00,,2013-03-05 07:01:00,
2013-03-05 02:11:00,28.0,20.0,29.78,WNW,293,0.0,2.0,71,0.00,,,0.00,,2013-03-05 07:11:00,
2013-03-05 02:22:00,28.0,20.0,29.77,North,0,7.0,7.0,71,0.00,,,0.00,,2013-03-05 07:22:00,
2013-03-05 02:31:00,28.0,20.0,29.78,North,0,5.0,6.0,71,0.00,,,0.00,,2013-03-05 07:31:00,
2013-03-05 02:41:00,28.0,20.0,29.78,North,0,5.0,6.0,71,0.00,,,0.00,,2013-03-05 07:41:00,
2013-03-05 02:52:00,27.0,19.0,29.79,NNE,23,0.0,4.0,71,0.00,,,0.00,,2013-03-05 07:52:00,
2013-03-05 03:02:00,27.0,19.0,29.79,North,0,0.0,11.0,71,0.00,,,0.00,,2013-03-05 08:02:00,
2013-03-05 03:11:00,27.0,19.0,29.79,North,0,0.0,11.0,71,0.00,,,0.00,,2013-03-05 08:11:00,
2013-03-05 03:21:00,27.0,19.0,29.79,NE,45,0.0,1.0,71,0.00,,,0.00,,2013-03-05 08:21:00,
2013-03-05 03:31:00,27.0,19.0,29.79,WSW,248,0.0,3.0,72,0.00,,,0.00,,2013-03-05 08:31:00,
2013-03-05 03:41:00,27.0,19.0,29.79,WSW,248,0.0,3.0,72,0.00,,,0.00,,2013-03-05 08:41:00,
2013-03-05 03:52:00,27.0,19.0,29.80,West,270,3.0,3.0,72,0.00,,,0.00,,2013-03-05 08:52:00,
2013-03-05 04:01:00,27.0,19.0,29.81,NW,315,3.0,6.0,72,0.00,,,0.00,,2013-03-05 09:01:00,
2013-03-05 04:11:00,27.0,20.0,29.82,NNW,338,0.0,0.0,73,0.00,,,0.00,,2013-03-05 09:11:00,
2013-03-05 04:21:00,27.0,20.0,29.82,NNW,338,0.0,0.0,73,0.00,,,0.00,,2013-03-05 09:21:00,
2013-03-05 04:32:00,26.0,19.0,29.82,North,0,0.0,9.0,73,0.00,,,0.00,,2013-03-05 09:32:00,
2013-03-05 04:42:00,26.0,19.0,29.82,North,0,0.0,9.0,73,0.00,,,0.00,,2013-03-05 09:42:00,
2013-03-05 04:52:00,26.0,19.0,29.83,WNW,293,0.0,0.0,73,0.00,,,0.00,,2013-03-05 09:52:00,
2013-03-05 05:01:00,26.0,19.0,29.83,North,0,0.0,0.0,73,0.00,,,0.00,,2013-03-05 10:01:00,
2013-03-05 05:11:00,26.0,19.0,29.83,North,0,0.0,0.0,73,0.00,,,0.00,,2013-03-05 10:11:00,
2013-03-05 05:21:00,26.0,19.0,29.85,WNW,293,0.0,0.0,74,0.00,,,0.00,,2013-03-05 10:21:00,
2013-03-05 05:32:00,26.0,19.0,29.85,West,270,0.0,0.0,74,0.00,,,0.00,,2013-03-05 10:32:00,
2013-03-05 05:42:00,26.0,19.0,29.85,West,270,0.0,0.0,74,0.00,,,0.00,,2013-03-05 10:42:00,
2013-03-05 05:52:00,25.0,18.0,29.85,WNW,293,0.0,0.0,74,0.00,,,0.00,,2013-03-05 10:52:00,
2013-03-05 06:01:00,25.0,18.0,29.86,WNW,293,0.0,0.0,74,0.00,,,0.00,,2013-03-05 11:01:00,
2013-03-05 06:11:00,25.0,18.0,29.86,WNW,293,0.0,0.0,74,0.00,,,0.00,,2013-03-05 11:11:00,
2013-03-05 06:22:00,25.0,18.0,29.86,WNW,293,0.0,0.0,74,0.00,,,0.00,,2013-03-05 11:22:00,
2013-03-05 06:32:00,25.0,18.0,29.86,WNW,293,0.0,0.0,75,0.00,,,0.00,,2013-03-05 11:32:00,
2013-03-05 06:42:00,25.0,18.0,29.86,WNW,293,0.0,0.0,75,0.00,,,0.00,,2013-03-05 11:42:00,
2013-03-05 06:52:00,26.0,19.0,29.87,WNW,293,0.0,0.0,75,0.00,,,0.00,,2013-03-05 11:52:00,
2013-03-05 07:02:00,26.0,19.0,29.88,NW,315,0.0,0.0,75,0.00,,,0.00,,2013-03-05 12:02:00,
2013-03-05 07:12:00,26.0,19.0,29.88,NW,315,0.0,0.0,75,0.00,,,0.00,,2013-03-05 12:12:00,
2013-03-05 07:22:00,27.0,20.0,29.88,West,270,0.0,0.0,75,0.00,,,0.00,,2013-03-05 12:22:00,
2013-03-05 07:32:00,28.0,21.0,29.89,West,270,0.0,0.0,74,0.00,,,0.00,,2013-03-05 12:32:00,
2013-03-05 07:42:00,28.0,21.0,29.89,West,270,0.0,0.0,74,0.00,,,0.00,,2013-03-05 12:42:00,
2013-03-05 07:52:00,29.0,22.0,29.90,WNW,293,0.0,0.0,74,0.00,,,0.00,,2013-03-05 12:52:00,
2013-03-05 08:02:00,30.0,22.0,29.90,NNE,23,0.0,0.0,73,0.00,,,0.00,,2013-03-05 13:02:00,
2013-03-05 08:11:00,30.0,22.0,29.90,NNE,23,0.0,0.0,73,0.00,,,0.00,,2013-03-05 13:11:00,
2013-03-05 08:22:00,30.0,22.0,29.90,NNE,23,0.0,0.0,72,0.00,,,0.00,,2013-03-05 13:22:00,
2013-03-05 08:32:00,31.0,23.0,29.90,North,0,0.0,5.0,71,0.00,,,0.00,,2013-03-05 13:32:00,
2013-03-05 08:42:00,31.0,23.0,29.90,North,0,0.0,5.0,71,0.00,,,0.00,,2013-03-05 13:42:00,
2013-03-05 08:52:00,32.0,23.0,29.91,NE,45,0.0,0.0,70,0.00,,,0.00,,2013-03-05 13:52:00,
2013-03-05 09:02:00,33.0,24.0,29.91,NNE,30,4.0,5.0,68,0.00,,,0.00,,2013-03-05 14:02:00,
2013-03-05 09:11:00,33.0,24.0,29.91,NNE,30,4.0,5.0,68,0.00,,,0.00,,2013-03-05 14:11:00,
2013-03-05 09:22:00,34.0,24.0,29.91,NE,45,1.0,5.0,66,0.00,,,0.00,,2013-03-05 14:22:00,
2013-03-05 09:32:00,35.0,24.0,29.91,NNE,23,4.0,5.0,65,0.00,,,0.00,,2013-03-05 14:32:00,
2013-03-05 09:42:00,35.0,24.0,29.91,NNE,23,4.0,5.0,65,0.00,,,0.00,,2013-03-05 14:42:00,
2013-03-05 09:52:00,36.0,25.0,29.92,NE,45,2.0,6.0,64,0.00,,,0.00,,2013-03-05 14:52:00,
2013-03-05 10:02:00,38.0,26.0,29.92,North,349,5.0,9.0,61,0.00,,,0.00,,2013-03-05 15:02:00,
2013-03-05 10:11:00,38.0,26.0,29.92,North,349,5.0,9.0,61,0.00,,,0.00,,2013-03-05 15:11:00,
2013-03-05 10:21:00,39.0,26.0,29.92,NNE,23,5.0,6.0,60,0.00,,,0.00,,2013-03-05 15:21:00,
2013-03-05 10:32:00,41.0,27.0,29.92,North,11,6.0,11.0,58,0.00,,,0.00,,2013-03-05 15:32:00,
2013-03-05 10:42:00,41.0,27.0,29.92,North,11,6.0,11.0,58,0.00,,,0.00,,2013-03-05 15:42:00,
2013-03-05 10:52:00,41.0,27.0,29.92,NE,35,4.0,8.0,56,0.00,,,0.00,,2013-03-05 15:52:00,
2013-03-05 11:02:00,41.0,26.0,29.92,NNW,338,5.0,5.0,55,0.00,,,0.00,,2013-03-05 16:02:00,
2013-03-05 11:11:00,41.0,26.0,29.92,NNW,338,5.0,5.0,55,0.00,,,0.00,,2013-03-05 16:11:00,
2013-03-05 11:21:00,42.0,27.0,29.92,NE,40,6.0,8.0,56,0.00,,,0.00,,2013-03-05 16:21:00,
2013-03-05 11:32:00,44.0,28.0,29.92,ENE,68,4.0,6.0,53,0.00,,,0.00,,2013-03-05 16:32:00,
2013-03-05 11:42:00,44.0,28.0,29.92,ENE,68,4.0,6.0,53,0.00,,,0.00,,2013-03-05 16:42:00,
2013-03-05 11:52:00,49.0,31.0,29.92,NE,45,5.0,8.0,50,0.00,,,0.00,,2013-03-05 16:52:00,
2013-03-05 12:01:00,55.0,32.0,29.92,NE,45,8.0,11.0,42,0.00,,,0.00,,2013-03-05 17:01:00,
2013-03-05 12:11:00,55.0,32.0,29.92,NE,45,8.0,11.0,42,0.00,,,0.00,,2013-03-05 17:11:00,
2013-03-05 12:21:00,58.0,34.0,29.91,NE,41,6.0,9.0,40,0.00,,,0.00,,2013-03-05 17:21:00,
2013-03-05 12:32:00,60.0,34.0,29.92,NNE,31,3.0,5.0,38,0.00,,,0.00,,2013-03-05 17:32:00,
2013-03-05 12:42:00,60.0,34.0,29.92,NNE,31,3.0,5.0,38,0.00,,,0.00,,2013-03-05 17:42:00,
2013-03-05 12:52:00,62.0,35.0,29.91,NNE,23,1.0,9.0,36,0.00,,,0.00,,2013-03-05 17:52:00,
2013-03-05 13:02:00,58.0,33.0,29.91,NE,49,6.0,9.0,38,0.00,,,0.00,,2013-03-05 18:02:00,
2013-03-05 13:11:00,58.0,33.0,29.91,NE,49,6.0,9.0,38,0.00,,,0.00,,2013-03-05 18:11:00,
2013-03-05 13:22:00,53.0,30.0,29.91,WSW,248,4.0,7.0,41,0.00,,,0.00,,2013-03-05 18:22:00,
2013-03-05 13:32:00,48.0,27.0,29.91,WSW,248,5.0,8.0,44,0.00,,,0.00,,2013-03-05 18:32:00,
2013-03-05 13:42:00,48.0,27.0,29.91,WSW,248,5.0,8.0,44,0.00,,,0.00,,2013-03-05 18:42:00,
2013-03-05 13:52:00,46.0,27.0,29.90,WSW,248,4.0,8.0,47,0.00,,,0.00,,2013-03-05 18:52:00,
2013-03-05 14:01:00,47.0,28.0,29.91,NE,45,0.0,2.0,48,0.00,,,0.00,,2013-03-05 19:01:00,
2013-03-05 14:11:00,47.0,28.0,29.91,NE,45,0.0,2.0,48,0.00,,,0.00,,2013-03-05 19:11:00,
2013-03-05 14:21:00,49.0,30.0,29.92,NNE,29,3.0,9.0,48,0.00,,,0.00,,2013-03-05 19:21:00,
2013-03-05 14:32:00,48.0,29.0,29.92,NE,45,0.0,0.0,47,0.00,,,0.00,,2013-03-05 19:32:00,
2013-03-05 14:42:00,48.0,29.0,29.92,NE,45,0.0,0.0,47,0.00,,,0.00,,2013-03-05 19:42:00,
2013-03-05 14:52:00,48.0,29.0,29.93,NE,45,0.0,7.0,48,0.00,,,0.00,,2013-03-05 19:52:00,
2013-03-05 15:01:00,47.0,29.0,29.93,NE,45,4.0,4.0,49,0.00,,,0.00,,2013-03-05 20:01:00,
2013-03-05 15:11:00,46.0,28.0,29.93,NE,45,3.0,3.0,50,0.00,,,0.00,,2013-03-05 20:11:00,
2013-03-05 15:22:00,46.0,28.0,29.93,NE,45,3.0,3.0,50,0.00,,,0.00,,2013-03-05 20:22:00,
2013-03-05 15:32:00,46.0,29.0,29.94,NE,45,2.0,8.0,51,0.00,,,0.00,,2013-03-05 20:32:00,
2013-03-05 15:42:00,46.0,29.0,29.94,NE,45,2.0,8.0,51,0.00,,,0.00,,2013-03-05 20:42:00,
2013-03-05 15:52:00,46.0,29.0,29.94,NE,45,0.0,0.0,51,0.00,,,0.00,,2013-03-05 20:52:00,
2013-03-05 16:02:00,44.0,28.0,29.95,NE,45,4.0,6.0,52,0.00,,,0.00,,2013-03-05 21:02:00,
2013-03-05 16:11:00,44.0,28.0,29.95,NE,45,4.0,6.0,52,0.00,,,0.00,,2013-03-05 21:11:00,
2013-03-05 16:22:00,44.0,28.0,29.95,NE,45,3.0,5.0,53,0.00,,,0.00,,2013-03-05 21:22:00,
2013-03-05 16:32:00,44.0,28.0,29.96,ENE,68,2.0,2.0,54,0.00,,,0.00,,2013-03-05 21:32:00,
2013-03-05 16:42:00,44.0,28.0,29.96,ENE,68,2.0,2.0,54,0.00,,,0.00,,2013-03-05 21:42:00,
2013-03-05 16:52:00,43.0,28.0,29.96,NE,45,3.0,3.0,54,0.00,,,0.00,,2013-03-05 21:52:00,
2013-03-05 17:01:00,43.0,28.0,29.96,ENE,59,2.0,5.0,55,0.00,,,0.00,,2013-03-05 22:01:00,
2013-03-05 17:11:00,43.0,28.0,29.96,ENE,59,2.0,5.0,55,0.00,,,0.00,,2013-03-05 22:11:00,
2013-03-05 17:22:00,42.0,27.0,29.97,NE,45,0.0,7.0,55,0.00,,,0.00,,2013-03-05 22:22:00,
2013-03-05 17:32:00,42.0,27.0,29.97,ENE,68,0.0,0.0,56,0.00,,,0.00,,2013-03-05 22:32:00,
2013-03-05 17:42:00,42.0,27.0,29.97,ENE,68,0.0,0.0,56,0.00,,,0.00,,2013-03-05 22:42:00,
2013-03-05 17:52:00,42.0,28.0,29.97,NE,45,0.0,0.0,57,0.00,,,0.00,,2013-03-05 22:52:00,
2013-03-05 18:01:00,41.0,27.0,29.97,NE,45,0.0,0.0,57,0.00,,,0.00,,2013-03-05 23:01:00,
2013-03-05 18:11:00,41.0,27.0,29.97,NE,45,0.0,0.0,57,0.00,,,0.00,,2013-03-05 23:11:00,
2013-03-05 18:21:00,41.0,27.0,29.97,NE,45,0.0,0.0,57,0.00,,,0.00,,2013-03-05 23:21:00,
2013-03-05 18:32:00,40.0,26.0,29.98,NE,45,0.0,0.0,58,0.00,,,0.00,,2013-03-05 23:32:00,
2013-03-05 18:42:00,40.0,26.0,29.98,NE,45,0.0,0.0,58,0.00,,,0.00,,2013-03-05 23:42:00,
2013-03-05 18:52:00,40.0,26.0,29.98,NE,45,0.0,0.0,58,0.00,,,0.00,,2013-03-05 23:52:00,
2013-03-05 19:02:00,40.0,26.0,29.99,NE,45,0.0,0.0,58,0.00,,,0.00,,2013-03-06 00:02:00,
2013-03-05 19:11:00,40.0,26.0,29.99,NE,45,0.0,0.0,58,0.00,,,0.00,,2013-03-06 00:11:00,
2013-03-05 19:21:00,40.0,27.0,29.99,NE,45,0.0,0.0,59,0.00,,,0.00,,2013-03-06 00:21:00,
2013-03-05 19:32:00,39.0,26.0,29.99,NE,45,0.0,0.0,59,0.00,,,0.00,,2013-03-06 00:32:00,
2013-03-05 19:42:00,39.0,26.0,29.99,NE,45,0.0,0.0,59,0.00,,,0.00,,2013-03-06 00:42:00,
2013-03-05 19:52:00,38.0,25.0,30.00,NE,45,0.0,0.0,60,0.00,,,0.00,,2013-03-06 00:52:00,
2013-03-05 20:02:00,38.0,25.0,30.00,NE,45,0.0,0.0,60,0.00,,,0.00,,2013-03-06 01:02:00,
2013-03-05 20:11:00,38.0,25.0,30.00,NE,45,0.0,0.0,60,0.00,,,0.00,,2013-03-06 01:11:00,
2013-03-05 20:21:00,38.0,26.0,30.01,ESE,113,0.0,0.0,61,0.00,,,0.00,,2013-03-06 01:21:00,
2013-03-05 20:32:00,36.0,24.0,30.01,SE,135,0.0,0.0,62,0.00,,,0.00,,2013-03-06 01:32:00,
2013-03-05 20:42:00,36.0,24.0,30.01,SE,135,0.0,0.0,62,0.00,,,0.00,,2013-03-06 01:42:00,
2013-03-05 20:51:00,36.0,25.0,30.00,SE,135,0.0,0.0,63,0.00,,,0.00,,2013-03-06 01:51:00,
2013-03-05 21:01:00,35.0,24.0,30.00,SE,135,0.0,0.0,64,0.00,,,0.00,,2013-03-06 02:01:00,
2013-03-05 21:11:00,35.0,24.0,30.00,SE,135,0.0,0.0,64,0.00,,,0.00,,2013-03-06 02:11:00,
2013-03-05 21:22:00,35.0,25.0,30.01,SE,135,0.0,0.0,66,0.00,,,0.00,,2013-03-06 02:22:00,
2013-03-05 21:32:00,34.0,24.0,30.00,SE,135,0.0,1.0,67,0.00,,,0.00,,2013-03-06 02:32:00,
2013-03-05 21:42:00,34.0,24.0,30.00,SE,135,0.0,1.0,67,0.00,,,0.00,,2013-03-06 02:42:00,
2013-03-05 21:52:00,34.0,25.0,30.01,ENE,68,0.0,0.0,68,0.00,,,0.00,,2013-03-06 02:52:00,
2013-03-05 22:02:00,33.0,24.0,30.01,SE,135,0.0,0.0,69,0.00,,,0.00,,2013-03-06 03:02:00,
2013-03-05 22:11:00,33.0,24.0,30.01,SE,135,0.0,0.0,69,0.00,,,0.00,,2013-03-06 03:11:00,
2013-03-05 22:22:00,33.0,25.0,30.01,SE,135,0.0,0.0,71,0.00,,,0.00,,2013-03-06 03:22:00,
2013-03-05 22:32:00,34.0,26.0,30.03,SE,135,0.0,0.0,73,0.00,,,0.00,,2013-03-06 03:32:00,
2013-03-05 22:42:00,34.0,26.0,30.03,SE,135,0.0,0.0,73,0.00,,,0.00,,2013-03-06 03:42:00,
2013-03-05 22:52:00,34.0,26.0,30.03,SE,135,0.0,0.0,73,0.00,,,0.00,,2013-03-06 03:52:00,
2013-03-05 23:02:00,34.0,26.0,30.01,SE,135,0.0,0.0,73,0.00,,,0.00,,2013-03-06 04:02:00,
2013-03-05 23:11:00,34.0,26.0,30.01,SE,135,0.0,0.0,73,0.00,,,0.00,,2013-03-06 04:11:00,
2013-03-05 23:22:00,34.0,26.0,30.00,East,90,0.0,0.0,73,0.00,,,0.00,,2013-03-06 04:22:00,
2013-03-05 23:32:00,34.0,27.0,30.00,NE,45,0.0,0.0,74,0.00,,,0.00,,2013-03-06 04:32:00,
2013-03-05 23:42:00,34.0,27.0,30.00,NE,45,0.0,0.0,74,0.00,,,0.00,,2013-03-06 04:42:00,
2013-03-05 23:52:00,34.0,27.0,29.99,NE,45,0.0,0.0,75,0.00,,,0.00,,2013-03-06 04:52:00,